Time,TemperatureF,DewpointF,PressureIn,WindDirection,WindDirectionDegrees,WindSpeedMPH,WindSpeedGustMPH,Humidity,HourlyPrecipIn,Conditions,Clouds,dailyrainin,SoftwareType,DateUTC
2013-03-19 00:07:00,27.3,25.8,30.17,SE,141,0.0,0.0,94,0.00,,,0.00,LWC V2.10 B1813,2013-03-19 04:07:00,
2013-03-19 00:12:00,27.3,25.8,30.17,SE,129,0.0,1.0,94,0.00,,,0.00,LWC V2.10 B1813,2013-03-19 04:12:00,
2013-03-19 00:17:00,27.3,25.8,30.16,SSE,151,0.0,0.0,94,0.00,,,0.00,LWC V2.10 B1813,2013-03-19 04:17:00,
2013-03-19 00:22:00,27.2,25.7,30.16,ENE,73,0.0,1.0,94,0.00,,,0.00,LWC V2.10 B1813,2013-03-19 04:22:00,
2013-03-19 00:32:00,27.2,25.7,30.15,East,101,0.0,0.0,94,0.00,,,0.00,LWC V2.10 B1813,2013-03-19 04:32:00,
2013-03-19 00:37:00,27.2,25.7,30.15,ESE,104,1.0,1.0,94,0.00,,,0.00,LWC V2.10 B1813,2013-03-19 04:37:00,
2013-03-19 00:42:00,27.2,26.0,30.14,ESE,106,0.0,1.0,95,0.00,,,0.00,LWC V2.10 B1813,2013-03-19 04:42:00,
2013-03-19 00:47:00,27.2,26.0,30.14,SE,137,0.0,1.0,95,0.00,,,0.00,LWC V2.10 B1813,2013-03-19 04:47:00,
2013-03-19 00:52:00,27.2,26.0,30.14,SE,137,0.0,0.0,95,0.00,,,0.00,LWC V2.10 B1813,2013-03-19 04:52:00,
2013-03-19 00:57:00,27.2,26.0,30.14,SE,137,0.0,0.0,95,0.00,,,0.00,LWC V2.10 B1813,2013-03-19 04:57:00,
2013-03-19 01:02:00,27.3,26.1,30.13,SE,137,0.0,0.0,95,0.00,,,0.00,LWC V2.10 B1813,2013-03-19 05:02:00,
2013-03-19 01:07:00,27.3,26.1,30.12,SE,137,0.0,0.0,95,0.00,,,0.00,LWC V2.10 B1813,2013-03-19 05:07:00,
2013-03-19 01:12:00,27.2,26.0,30.12,ESE,118,1.0,2.0,95,0.00,,,0.00,LWC V2.10 B1813,2013-03-19 05:12:00,
2013-03-19 01:17:00,27.2,26.0,30.12,ESE,110,0.0,5.0,95,0.00,,,0.00,LWC V2.10 B1813,2013-03-19 05:17:00,
2013-03-19 01:22:00,27.2,26.0,30.12,ESE,118,1.0,1.0,95,0.00,,,0.00,LWC V2.10 B1813,2013-03-19 05:22:00,
2013-03-19 01:27:00,27.2,26.0,30.12,SSE,168,1.0,2.0,95,0.00,,,0.00,LWC V2.10 B1813,2013-03-19 05:27:00,
2013-03-19 01:32:00,27.1,25.9,30.12,East,96,0.0,3.0,95,0.00,,,0.00,LWC V2.10 B1813,2013-03-19 05:32:00,
2013-03-19 01:37:00,27.1,25.9,30.11,East,84,0.0,1.0,95,0.00,,,0.00,LWC V2.10 B1813,2013-03-19 05:37:00,
2013-03-19 01:42:00,27.1,25.9,30.11,SSW,204,0.0,0.0,95,0.00,,,0.00,LWC V2.10 B1813,2013-03-19 05:42:00,
2013-03-19 01:47:00,27.1,25.9,30.10,SE,128,0.0,2.0,95,0.00,,,0.00,LWC V2.10 B1813,2013-03-19 05:47:00,
2013-03-19 01:52:00,27.1,25.9,30.10,ESE,121,0.0,1.0,95,0.00,,,0.00,LWC V2.10 B1813,2013-03-19 05:52:00,
2013-03-19 01:57:00,27.2,26.0,30.10,ESE,122,0.0,0.0,95,0.00,,,0.00,LWC V2.10 B1813,2013-03-19 05:57:00,
2013-03-19 02:02:00,27.2,26.0,30.09,ESE,116,1.0,2.0,95,0.00,,,0.00,LWC V2.10 B1813,2013-03-19 06:02:00,
2013-03-19 02:12:00,27.1,25.9,30.08,ESE,116,0.0,1.0,95,0.00,,,0.00,LWC V2.10 B1813,2013-03-19 06:12:00,
2013-03-19 02:17:00,27.1,25.9,30.08,SE,128,1.0,1.0,95,0.00,,,0.00,LWC V2.10 B1813,2013-03-19 06:17:00,
2013-03-19 02:22:00,27.1,25.9,30.08,SE,139,0.0,1.0,95,0.00,,,0.00,LWC V2.10 B1813,2013-03-19 06:22:00,
2013-03-19 02:27:00,27.1,25.9,30.08,ENE,66,0.0,0.0,95,0.00,,,0.00,LWC V2.10 B1813,2013-03-19 06:27:00,
2013-03-19 02:32:00,27.1,25.9,30.08,NNE,15,0.0,2.0,95,0.00,,,0.00,LWC V2.10 B1813,2013-03-19 06:32:00,
2013-03-19 02:37:00,27.1,25.9,30.07,ESE,103,2.0,2.0,95,0.00,,,0.00,LWC V2.10 B1813,2013-03-19 06:37:00,
2013-03-19 02:42:00,27.1,25.9,30.07,ESE,112,0.0,0.0,95,0.00,,,0.00,LWC V2.10 B1813,2013-03-19 06:42:00,
2013-03-19 02:47:00,27.0,25.8,30.07,ESE,110,0.0,0.0,95,0.00,,,0.00,LWC V2.10 B1813,2013-03-19 06:47:00,
2013-03-19 02:52:00,27.0,25.8,30.07,ESE,116,0.0,0.0,95,0.00,,,0.00,LWC V2.10 B1813,2013-03-19 06:52:00,
2013-03-19 02:57:00,27.0,25.8,30.07,ESE,116,0.0,0.0,95,0.00,,,0.00,LWC V2.10 B1813,2013-03-19 06:57:00,
2013-03-19 03:02:00,27.0,25.8,30.07,ESE,116,0.0,0.0,95,0.00,,,0.00,LWC V2.10 B1813,2013-03-19 07:02:00,
2013-03-19 03:07:00,27.0,25.8,30.07,ESE,116,0.0,0.0,95,0.00,,,0.00,LWC V2.10 B1813,2013-03-19 07:07:00,
2013-03-19 03:12:00,27.0,25.8,30.06,ESE,116,0.0,0.0,95,0.00,,,0.00,LWC V2.10 B1813,2013-03-19 07:12:00,
2013-03-19 03:17:00,27.0,25.8,30.06,ESE,116,0.0,0.0,95,0.00,,,0.00,LWC V2.10 B1813,2013-03-19 07:17:00,
2013-03-19 03:22:00,27.0,25.8,30.06,ESE,116,0.0,0.0,95,0.00,,,0.00,LWC V2.10 B1813,2013-03-19 07:22:00,
2013-03-19 03:27:00,27.0,25.8,30.06,ESE,116,0.0,0.0,95,0.00,,,0.00,LWC V2.10 B1813,2013-03-19 07:27:00,
2013-03-19 03:32:00,27.0,25.8,30.06,ESE,116,0.0,0.0,95,0.00,,,0.00,LWC V2.10 B1813,2013-03-19 07:32:00,
2013-03-19 03:37:00,27.0,26.0,30.05,ESE,116,0.0,0.0,96,0.00,,,0.00,LWC V2.10 B1813,2013-03-19 07:37:00,
2013-03-19 03:42:00,27.0,26.0,30.05,ESE,116,0.0,0.0,96,0.00,,,0.00,LWC V2.10 B1813,2013-03-19 07:42:00,
2013-03-19 03:47:00,27.0,26.0,30.04,ESE,116,0.0,0.0,96,0.00,,,0.00,LWC V2.10 B1813,2013-03-19 07:47:00,
2013-03-19 03:52:00,27.0,26.0,30.04,East,100,0.0,0.0,96,0.00,,,0.00,LWC V2.10 B1813,2013-03-19 07:52:00,
2013-03-19 03:57:00,27.0,26.0,30.04,East,100,0.0,0.0,96,0.00,,,0.00,LWC V2.10 B1813,2013-03-19 07:57:00,
2013-03-19 04:02:00,27.0,26.0,30.04,East,101,0.0,0.0,96,0.00,,,0.00,LWC V2.10 B1813,2013-03-19 08:02:00,
2013-03-19 04:07:00,27.0,26.0,30.04,East,100,0.0,0.0,96,0.00,,,0.00,LWC V2.10 B1813,2013-03-19 08:07:00,
2013-03-19 04:12:00,27.0,26.0,30.04,East,100,0.0,0.0,96,0.00,,,0.00,LWC V2.10 B1813,2013-03-19 08:12:00,
2013-03-19 04:17:00,27.0,26.0,30.03,East,92,0.0,0.0,96,0.00,,,0.00,LWC V2.10 B1813,2013-03-19 08:17:00,
2013-03-19 04:22:00,27.0,26.0,30.03,East,92,0.0,0.0,96,0.00,,,0.00,LWC V2.10 B1813,2013-03-19 08:22:00,
2013-03-19 04:27:00,27.0,26.0,30.03,East,92,0.0,0.0,96,0.00,,,0.00,LWC V2.10 B1813,2013-03-19 08:27:00,
2013-03-19 04:37:00,27.0,26.0,30.02,ENE,69,0.0,0.0,96,0.00,,,0.00,LWC V2.10 B1813,2013-03-19 08:37:00,
2013-03-19 04:42:00,27.0,26.0,30.01,ENE,69,0.0,0.0,96,0.00,,,0.00,LWC V2.10 B1813,2013-03-19 08:42:00,
2013-03-19 04:47:00,27.0,26.0,30.01,ENE,69,0.0,0.0,96,0.00,,,0.00,LWC V2.10 B1813,2013-03-19 08:47:00,
2013-03-19 04:52:00,27.0,26.0,30.01,ENE,69,0.0,0.0,96,0.00,,,0.00,LWC V2.10 B1813,2013-03-19 08:52:00,
2013-03-19 04:57:00,27.0,26.0,30.01,ENE,69,0.0,0.0,96,0.00,,,0.00,LWC V2.10 B1813,2013-03-19 08:57:00,
2013-03-19 05:02:00,27.1,26.1,30.01,ENE,69,0.0,0.0,96,0.00,,,0.00,LWC V2.10 B1813,2013-03-19 09:02:00,
2013-03-19 05:07:00,27.1,26.1,30.01,ENE,69,0.0,0.0,96,0.00,,,0.00,LWC V2.10 B1813,2013-03-19 09:07:00,
2013-03-19 05:12:00,27.1,26.1,30.01,ENE,70,0.0,0.0,96,0.00,,,0.00,LWC V2.10 B1813,2013-03-19 09:12:00,
2013-03-19 05:17:00,27.1,26.1,30.01,ENE,69,0.0,0.0,96,0.00,,,0.00,LWC V2.10 B1813,2013-03-19 09:17:00,
2013-03-19 05:22:00,27.1,26.1,30.01,ENE,69,0.0,0.0,96,0.00,,,0.00,LWC V2.10 B1813,2013-03-19 09:22:00,
2013-03-19 05:27:00,27.1,26.1,30.01,ENE,69,0.0,0.0,96,0.00,,,0.00,LWC V2.10 B1813,2013-03-19 09:27:00,
2013-03-19 05:32:00,27.2,26.2,30.01,ENE,69,0.0,0.0,96,0.00,,,0.00,LWC V2.10 B1813,2013-03-19 09:32:00,
2013-03-19 05:37:00,27.2,26.2,30.01,ENE,69,0.0,0.0,96,0.00,,,0.00,LWC V2.10 B1813,2013-03-19 09:37:00,
2013-03-19 05:42:00,27.2,26.2,30.00,ENE,70,0.0,0.0,96,0.00,,,0.00,LWC V2.10 B1813,2013-03-19 09:42:00,
2013-03-19 05:47:00,27.2,26.2,30.00,ENE,69,0.0,0.0,96,0.00,,,0.00,LWC V2.10 B1813,2013-03-19 09:47:00,
2013-03-19 05:52:00,27.2,26.2,30.00,ENE,69,0.0,0.0,96,0.00,,,0.00,LWC V2.10 B1813,2013-03-19 09:52:00,
2013-03-19 05:57:00,27.3,26.3,30.00,NE,49,0.0,0.0,96,0.00,,,0.00,LWC V2.10 B1813,2013-03-19 09:57:00,
2013-03-19 06:02:00,27.3,26.3,30.00,NE,48,0.0,0.0,96,0.00,,,0.00,LWC V2.10 B1813,2013-03-19 10:02:00,
2013-03-19 06:07:00,27.3,26.3,29.99,NE,49,0.0,0.0,96,0.00,,,0.00,LWC V2.10 B1813,2013-03-19 10:07:00,
2013-03-19 06:12:00,27.3,26.3,29.99,ENE,69,0.0,0.0,96,0.00,,,0.00,LWC V2.10 B1813,2013-03-19 10:12:00,
2013-03-19 06:17:00,27.5,26.5,29.99,East,90,0.0,0.0,96,0.00,,,0.00,LWC V2.10 B1813,2013-03-19 10:17:00,
2013-03-19 06:22:00,27.6,26.6,29.99,East,91,0.0,0.0,96,0.00,,,0.00,LWC V2.10 B1813,2013-03-19 10:22:00,
2013-03-19 06:27:00,27.6,26.6,29.99,ESE,116,0.0,0.0,96,0.00,,,0.00,LWC V2.10 B1813,2013-03-19 10:27:00,
2013-03-19 06:32:00,27.7,26.7,29.98,ESE,112,0.0,0.0,96,0.00,,,0.00,LWC V2.10 B1813,2013-03-19 10:32:00,
2013-03-19 06:37:00,27.8,26.8,29.98,East,80,0.0,0.0,96,0.00,,,0.00,LWC V2.10 B1813,2013-03-19 10:37:00,
2013-03-19 06:42:00,27.9,26.7,29.98,North,357,0.0,0.0,95,0.00,,,0.00,LWC V2.10 B1813,2013-03-19 10:42:00,
2013-03-19 06:47:00,28.0,26.8,29.98,NE,45,0.0,0.0,95,0.00,,,0.00,LWC V2.10 B1813,2013-03-19 10:47:00,
2013-03-19 06:52:00,28.0,26.8,29.97,East,83,0.0,0.0,95,0.00,,,0.00,LWC V2.10 B1813,2013-03-19 10:52:00,
2013-03-19 06:57:00,28.0,26.8,29.97,East,84,0.0,0.0,95,0.00,,,0.00,LWC V2.10 B1813,2013-03-19 10:57:00,
2013-03-19 07:02:00,28.0,26.8,29.96,SSE,152,0.0,0.0,95,0.00,,,0.00,LWC V2.10 B1813,2013-03-19 11:02:00,
2013-03-19 07:07:00,28.0,26.8,29.97,SSE,153,0.0,0.0,95,0.00,,,0.00,LWC V2.10 B1813,2013-03-19 11:07:00,
2013-03-19 07:17:00,28.1,27.1,29.96,ENE,72,0.0,0.0,96,0.00,,,0.00,LWC V2.10 B1813,2013-03-19 11:17:00,
2013-03-19 07:22:00,28.2,27.2,29.96,SE,128,0.0,0.0,96,0.00,,,0.00,LWC V2.10 B1813,2013-03-19 11:22:00,
2013-03-19 07:27:00,28.3,27.3,29.95,ESE,123,0.0,0.0,96,0.00,,,0.00,LWC V2.10 B1813,2013-03-19 11:27:00,
2013-03-19 07:32:00,28.4,27.2,29.95,East,84,0.0,0.0,95,0.00,,,0.00,LWC V2.10 B1813,2013-03-19 11:32:00,
2013-03-19 07:37:00,28.6,27.4,29.94,SE,133,0.0,0.0,95,0.00,,,0.00,LWC V2.10 B1813,2013-03-19 11:37:00,
2013-03-19 07:42:00,28.8,27.6,29.94,ESE,113,0.0,0.0,95,0.00,,,0.00,LWC V2.10 B1813,2013-03-19 11:42:00,
2013-03-19 07:47:00,28.9,27.7,29.93,ESE,116,0.0,0.0,95,0.00,,,0.00,LWC V2.10 B1813,2013-03-19 11:47:00,
2013-03-19 07:52:00,29.0,27.8,29.93,ESE,105,0.0,0.0,95,0.00,,,0.00,LWC V2.10 B1813,2013-03-19 11:52:00,
2013-03-19 07:57:00,29.2,27.7,29.93,East,90,0.0,0.0,94,0.00,,,0.00,LWC V2.10 B1813,2013-03-19 11:57:00,
2013-03-19 08:02:00,29.3,27.8,29.93,East,80,0.0,0.0,94,0.00,,,0.00,LWC V2.10 B1813,2013-03-19 12:02:00,
2013-03-19 08:07:00,29.5,27.7,29.93,East,89,0.0,0.0,93,0.00,,,0.00,LWC V2.10 B1813,2013-03-19 12:07:00,
2013-03-19 08:12:00,29.8,27.8,29.93,SE,137,0.0,0.0,92,0.00,,,0.00,LWC V2.10 B1813,2013-03-19 12:12:00,
2013-03-19 08:17:00,30.0,27.7,29.93,ENE,78,0.0,0.0,91,0.00,,,0.00,LWC V2.10 B1813,2013-03-19 12:17:00,
2013-03-19 08:22:00,30.2,27.6,29.92,ESE,118,0.0,0.0,90,0.00,,,0.00,LWC V2.10 B1813,2013-03-19 12:22:00,
2013-03-19 08:27:00,30.3,27.7,29.92,SSE,154,0.0,0.0,90,0.00,,,0.00,LWC V2.10 B1813,2013-03-19 12:27:00,
2013-03-19 08:32:00,30.3,28.0,29.92,South,172,0.0,0.0,91,0.00,,,0.00,LWC V2.10 B1813,2013-03-19 12:32:00,
2013-03-19 08:37:00,30.4,28.1,29.92,ESE,114,0.0,0.0,91,0.00,,,0.00,LWC V2.10 B1813,2013-03-19 12:37:00,
2013-03-19 08:42:00,30.4,27.8,29.92,East,88,0.0,0.0,90,0.00,,,0.00,LWC V2.10 B1813,2013-03-19 12:42:00,
2013-03-19 08:47:00,30.5,27.9,29.92,NE,43,0.0,0.0,90,0.00,,,0.00,LWC V2.10 B1813,2013-03-19 12:47:00,
2013-03-19 08:52:00,30.5,28.2,29.91,ESE,103,0.0,0.0,91,0.00,,,0.00,LWC V2.10 B1813,2013-03-19 12:52:00,
2013-03-19 08:57:00,30.5,28.2,29.91,ESE,105,0.0,0.0,91,0.00,,,0.00,LWC V2.10 B1813,2013-03-19 12:57:00,
2013-03-19 09:02:00,30.6,28.3,29.90,NNW,346,0.0,0.0,91,0.00,,,0.00,LWC V2.10 B1813,2013-03-19 13:02:00,
2013-03-19 09:07:00,30.6,28.3,29.90,ENE,66,0.0,0.0,91,0.00,,,0.00,LWC V2.10 B1813,2013-03-19 13:07:00,
2013-03-19 09:12:00,30.8,28.5,29.90,SE,125,0.0,0.0,91,0.00,,,0.00,LWC V2.10 B1813,2013-03-19 13:12:00,
2013-03-19 09:17:00,30.9,28.6,29.90,East,80,0.0,0.0,91,0.00,,,0.00,LWC V2.10 B1813,2013-03-19 13:17:00,
2013-03-19 09:22:00,30.9,28.6,29.90,ENE,64,0.0,0.0,91,0.00,,,0.00,LWC V2.10 B1813,2013-03-19 13:22:00,
2013-03-19 09:27:00,31.0,28.7,29.90,ENE,66,0.0,0.0,91,0.00,,,0.00,LWC V2.10 B1813,2013-03-19 13:27:00,
2013-03-19 09:32:00,31.1,28.8,29.90,East,90,0.0,0.0,91,0.00,,,0.00,LWC V2.10 B1813,2013-03-19 13:32:00,
2013-03-19 09:42:00,31.2,28.9,29.88,ESE,117,0.0,0.0,91,0.00,,,0.00,LWC V2.10 B1813,2013-03-19 13:42:00,
2013-03-19 09:47:00,31.3,28.7,29.88,ESE,121,0.0,0.0,90,0.00,,,0.00,LWC V2.10 B1813,2013-03-19 13:47:00,
2013-03-19 09:52:00,31.3,28.7,29.88,East,89,0.0,0.0,90,0.00,,,0.00,LWC V2.10 B1813,2013-03-19 13:52:00,
2013-03-19 09:57:00,31.4,28.8,29.88,South,173,0.0,0.0,90,0.00,,,0.00,LWC V2.10 B1813,2013-03-19 13:57:00,
2013-03-19 10:02:00,31.5,29.2,29.88,East,90,0.0,0.0,91,0.00,,,0.00,LWC V2.10 B1813,2013-03-19 14:02:00,
2013-03-19 10:07:00,31.7,29.1,29.88,SE,130,0.0,0.0,90,0.00,,,0.00,LWC V2.10 B1813,2013-03-19 14:07:00,
2013-03-19 10:12:00,31.9,29.3,29.88,NNW,336,0.0,0.0,90,0.00,,,0.00,LWC V2.10 B1813,2013-03-19 14:12:00,
2013-03-19 10:17:00,32.1,29.5,29.87,North,7,0.0,0.0,90,0.00,,,0.00,LWC V2.10 B1813,2013-03-19 14:17:00,
2013-03-19 10:22:00,32.2,29.6,29.87,SSE,167,0.0,0.0,90,0.00,,,0.00,LWC V2.10 B1813,2013-03-19 14:22:00,
2013-03-19 10:27:00,32.1,29.2,29.86,SSE,167,0.0,0.0,89,0.00,,,0.00,LWC V2.10 B1813,2013-03-19 14:27:00,
2013-03-19 10:32:00,32.0,29.4,29.86,ESE,106,0.0,0.0,90,0.00,,,0.00,LWC V2.10 B1813,2013-03-19 14:32:00,
2013-03-19 10:37:00,31.9,29.6,29.85,ESE,108,0.0,0.0,91,0.00,,,0.00,LWC V2.10 B1813,2013-03-19 14:37:00,
2013-03-19 10:42:00,32.0,29.7,29.85,ESE,113,0.0,0.0,91,0.00,,,0.00,LWC V2.10 B1813,2013-03-19 14:42:00,
2013-03-19 10:47:00,32.3,30.0,29.84,ESE,119,0.0,0.0,91,0.00,,,0.00,LWC V2.10 B1813,2013-03-19 14:47:00,
2013-03-19 10:52:00,32.6,30.3,29.84,SSE,162,0.0,0.0,91,0.00,,,0.00,LWC V2.10 B1813,2013-03-19 14:52:00,
2013-03-19 10:57:00,32.7,30.1,29.83,ESE,110,0.0,0.0,90,0.00,,,0.00,LWC V2.10 B1813,2013-03-19 14:57:00,
2013-03-19 11:02:00,32.7,29.8,29.83,SW,228,0.0,0.0,89,0.00,,,0.00,LWC V2.10 B1813,2013-03-19 15:02:00,
2013-03-19 11:07:00,32.9,30.0,29.82,NNE,25,0.0,0.0,89,0.00,,,0.00,LWC V2.10 B1813,2013-03-19 15:07:00,
2013-03-19 11:12:00,33.0,30.4,29.81,ESE,123,0.0,0.0,90,0.00,,,0.00,LWC V2.10 B1813,2013-03-19 15:12:00,
2013-03-19 11:17:00,33.1,30.2,29.81,East,93,0.0,0.0,89,0.00,,,0.00,LWC V2.10 B1813,2013-03-19 15:17:00,
2013-03-19 11:22:00,33.2,30.3,29.81,ENE,69,0.0,0.0,89,0.00,,,0.00,LWC V2.10 B1813,2013-03-19 15:22:00,
2013-03-19 11:27:00,33.3,30.4,29.81,ESE,110,0.0,0.0,89,0.00,,,0.00,LWC V2.10 B1813,2013-03-19 15:27:00,
2013-03-19 11:32:00,33.3,29.9,29.81,ENE,72,0.0,0.0,87,0.00,,,0.00,LWC V2.10 B1813,2013-03-19 15:32:00,
2013-03-19 11:37:00,33.5,30.3,29.81,SE,145,0.0,0.0,88,0.00,,,0.00,LWC V2.10 B1813,2013-03-19 15:37:00,
2013-03-19 11:42:00,33.6,30.2,29.81,NNW,341,0.0,0.0,87,0.00,,,0.00,LWC V2.10 B1813,2013-03-19 15:42:00,
2013-03-19 11:47:00,33.7,30.0,29.81,ESE,109,0.0,0.0,86,0.00,,,0.00,LWC V2.10 B1813,2013-03-19 15:47:00,
2013-03-19 11:52:00,33.7,30.2,29.80,ESE,110,0.0,0.0,87,0.00,,,0.00,LWC V2.10 B1813,2013-03-19 15:52:00,
2013-03-19 11:57:00,33.7,30.0,29.80,ESE,104,0.0,0.0,86,0.00,,,0.00,LWC V2.10 B1813,2013-03-19 15:57:00,
2013-03-19 12:02:00,33.8,30.1,29.79,East,101,0.0,0.0,86,0.00,,,0.00,LWC V2.10 B1813,2013-03-19 16:02:00,
2013-03-19 12:12:00,33.9,30.2,29.78,SE,124,0.0,0.0,86,0.00,,,0.00,LWC V2.10 B1813,2013-03-19 16:12:00,
2013-03-19 12:17:00,33.9,29.9,29.78,ESE,117,0.0,0.0,85,0.00,,,0.00,LWC V2.10 B1813,2013-03-19 16:17:00,
2013-03-19 12:22:00,34.0,30.0,29.79,ESE,102,0.0,0.0,85,0.00,,,0.00,LWC V2.10 B1813,2013-03-19 16:22:00,
2013-03-19 12:32:00,34.1,29.8,29.80,ESE,108,0.0,0.0,84,0.00,,,0.00,LWC V2.10 B1813,2013-03-19 16:32:00,
2013-03-19 12:37:00,34.1,30.1,29.81,NE,39,0.0,0.0,85,0.00,,,0.00,LWC V2.10 B1813,2013-03-19 16:37:00,
2013-03-19 12:42:00,34.0,30.5,29.82,WNW,291,0.0,0.0,87,0.00,,,0.00,LWC V2.10 B1813,2013-03-19 16:42:00,
2013-03-19 12:47:00,33.7,30.0,29.82,NW,324,0.0,0.0,86,0.00,,,0.00,LWC V2.10 B1813,2013-03-19 16:47:00,
2013-03-19 12:52:00,33.6,30.2,29.82,NE,40,0.0,0.0,87,0.00,,,0.00,LWC V2.10 B1813,2013-03-19 16:52:00,
2013-03-19 13:02:00,33.4,30.5,29.82,NNW,334,0.0,0.0,89,0.00,,,0.00,LWC V2.10 B1813,2013-03-19 17:02:00,
2013-03-19 13:12:00,33.2,30.6,29.82,ENE,69,0.0,0.0,90,0.00,,,0.00,LWC V2.10 B1813,2013-03-19 17:12:00,
2013-03-19 13:17:00,33.2,30.9,29.82,West,280,0.0,0.0,91,0.00,,,0.00,LWC V2.10 B1813,2013-03-19 17:17:00,
2013-03-19 13:22:00,33.1,30.8,29.82,East,91,0.0,0.0,91,0.00,,,0.00,LWC V2.10 B1813,2013-03-19 17:22:00,
2013-03-19 13:27:00,32.8,30.7,29.80,ESE,104,0.0,0.0,92,0.00,,,0.00,LWC V2.10 B1813,2013-03-19 17:27:00,
2013-03-19 13:32:00,32.5,30.7,29.79,ESE,102,0.0,0.0,93,0.00,,,0.00,LWC V2.10 B1813,2013-03-19 17:32:00,
2013-03-19 13:37:00,32.4,30.9,29.81,NW,321,0.0,0.0,94,0.00,,,0.00,LWC V2.10 B1813,2013-03-19 17:37:00,
2013-03-19 13:42:00,32.5,31.0,29.81,NNW,328,0.0,0.0,94,0.00,,,0.00,LWC V2.10 B1813,2013-03-19 17:42:00,
2013-03-19 13:47:00,32.5,31.0,29.81,East,82,0.0,0.0,94,0.00,,,0.00,LWC V2.10 B1813,2013-03-19 17:47:00,
2013-03-19 13:52:00,32.5,31.0,29.80,NNW,348,0.0,0.0,94,0.00,,,0.00,LWC V2.10 B1813,2013-03-19 17:52:00,
2013-03-19 13:57:00,32.6,31.3,29.79,NE,53,0.0,0.0,95,0.00,,,0.00,LWC V2.10 B1813,2013-03-19 17:57:00,
2013-03-19 14:02:00,32.6,31.3,29.79,SE,125,0.0,0.0,95,0.00,,,0.00,LWC V2.10 B1813,2013-03-19 18:02:00,
2013-03-19 14:07:00,32.6,31.3,29.77,NNE,31,0.0,0.0,95,0.00,,,0.00,LWC V2.10 B1813,2013-03-19 18:07:00,
2013-03-19 14:12:00,32.5,31.2,29.77,East,101,0.0,0.0,95,0.00,,,0.00,LWC V2.10 B1813,2013-03-19 18:12:00,
2013-03-19 14:22:00,32.4,31.1,29.77,ENE,66,0.0,0.0,95,0.00,,,0.00,LWC V2.10 B1813,2013-03-19 18:22:00,
2013-03-19 14:27:00,32.4,31.1,29.76,NNE,24,0.0,0.0,95,0.00,,,0.00,LWC V2.10 B1813,2013-03-19 18:27:00,
2013-03-19 14:32:00,32.5,31.2,29.77,NNW,334,0.0,0.0,95,0.00,,,0.00,LWC V2.10 B1813,2013-03-19 18:32:00,
2013-03-19 14:37:00,32.4,31.1,29.75,SE,135,0.0,0.0,95,0.00,,,0.00,LWC V2.10 B1813,2013-03-19 18:37:00,
2013-03-19 14:42:00,32.4,31.4,29.74,ESE,105,0.0,0.0,96,0.00,,,0.00,LWC V2.10 B1813,2013-03-19 18:42:00,
2013-03-19 14:47:00,32.3,31.0,29.73,ENE,63,0.0,0.0,95,0.00,,,0.00,LWC V2.10 B1813,2013-03-19 18:47:00,
2013-03-19 14:52:00,32.2,31.2,29.71,ESE,108,0.0,0.0,96,0.00,,,0.00,LWC V2.10 B1813,2013-03-19 18:52:00,
2013-03-19 15:02:00,32.1,31.1,29.69,ESE,122,0.0,0.0,96,0.00,,,0.00,LWC V2.10 B1813,2013-03-19 19:02:00,
2013-03-19 15:07:00,32.2,30.9,29.68,ESE,103,0.0,0.0,95,0.00,,,0.00,LWC V2.10 B1813,2013-03-19 19:07:00,
2013-03-19 15:12:00,32.5,31.2,29.67,North,3,0.0,0.0,95,0.00,,,0.00,LWC V2.10 B1813,2013-03-19 19:12:00,
2013-03-19 15:17:00,32.7,31.4,29.68,NE,49,0.0,0.0,95,0.00,,,0.00,LWC V2.10 B1813,2013-03-19 19:17:00,
2013-03-19 15:22:00,32.8,31.3,29.68,NW,313,0.0,0.0,94,0.00,,,0.00,LWC V2.10 B1813,2013-03-19 19:22:00,
2013-03-19 15:27:00,33.0,30.9,29.68,WNW,294,0.0,0.0,92,0.00,,,0.00,LWC V2.10 B1813,2013-03-19 19:27:00,
2013-03-19 15:32:00,33.2,31.1,29.68,West,275,0.0,0.0,92,0.00,,,0.00,LWC V2.10 B1813,2013-03-19 19:32:00,
2013-03-19 15:42:00,33.3,30.7,29.68,SSE,163,0.0,0.0,90,0.00,,,0.01,LWC V2.10 B1813,2013-03-19 19:42:00,
2013-03-19 15:47:00,33.3,30.1,29.68,SW,235,0.0,0.0,88,0.00,,,0.01,LWC V2.10 B1813,2013-03-19 19:47:00,
2013-03-19 15:52:00,33.4,30.5,29.69,WNW,290,0.0,0.0,89,0.00,,,0.01,LWC V2.10 B1813,2013-03-19 19:52:00,
2013-03-19 16:02:00,33.4,30.5,29.69,North,354,0.0,0.0,89,0.00,,,0.01,LWC V2.10 B1813,2013-03-19 20:02:00,
2013-03-19 16:12:00,33.4,30.5,29.69,NNW,343,0.0,0.0,89,0.00,,,0.01,LWC V2.10 B1813,2013-03-19 20:12:00,
2013-03-19 16:17:00,33.3,30.4,29.70,East,83,0.0,0.0,89,0.00,,,0.01,LWC V2.10 B1813,2013-03-19 20:17:00,
2013-03-19 16:22:00,33.1,30.5,29.69,North,0,0.0,0.0,90,0.00,,,0.01,LWC V2.10 B1813,2013-03-19 20:22:00,
2013-03-19 16:27:00,33.2,30.3,29.68,NE,49,0.0,0.0,89,0.00,,,0.01,LWC V2.10 B1813,2013-03-19 20:27:00,
2013-03-19 16:32:00,33.1,30.2,29.68,SE,130,0.0,0.0,89,0.00,,,0.01,LWC V2.10 B1813,2013-03-19 20:32:00,
2013-03-19 16:42:00,33.1,29.9,29.68,ENE,69,0.0,0.0,88,0.00,,,0.01,LWC V2.10 B1813,2013-03-19 20:42:00,
2013-03-19 16:47:00,33.1,29.9,29.68,East,92,0.0,0.0,88,0.00,,,0.01,LWC V2.10 B1813,2013-03-19 20:47:00,
2013-03-19 16:57:00,33.2,29.8,29.68,SSE,154,0.0,0.0,87,0.00,,,0.01,LWC V2.10 B1813,2013-03-19 20:57:00,
2013-03-19 17:02:00,33.1,30.2,29.67,East,88,0.0,0.0,89,0.00,,,0.01,LWC V2.10 B1813,2013-03-19 21:02:00,
2013-03-19 17:07:00,33.1,29.9,29.67,NE,45,0.0,0.0,88,0.00,,,0.01,LWC V2.10 B1813,2013-03-19 21:07:00,
2013-03-19 17:12:00,33.1,29.9,29.67,North,355,0.0,0.0,88,0.00,,,0.01,LWC V2.10 B1813,2013-03-19 21:12:00,
2013-03-19 17:17:00,33.1,29.9,29.67,SE,133,0.0,0.0,88,0.00,,,0.01,LWC V2.10 B1813,2013-03-19 21:17:00,
2013-03-19 17:27:00,32.9,30.0,29.67,ESE,104,0.0,0.0,89,0.00,,,0.01,LWC V2.10 B1813,2013-03-19 21:27:00,
2013-03-19 17:32:00,32.7,29.8,29.67,NW,310,0.0,0.0,89,0.00,,,0.01,LWC V2.10 B1813,2013-03-19 21:32:00,
2013-03-19 17:37:00,32.6,30.0,29.67,NNW,343,0.0,0.0,90,0.00,,,0.01,LWC V2.10 B1813,2013-03-19 21:37:00,
2013-03-19 17:42:00,32.4,29.5,29.67,North,350,0.0,0.0,89,0.00,,,0.01,LWC V2.10 B1813,2013-03-19 21:42:00,
2013-03-19 17:47:00,32.2,29.6,29.68,NW,305,0.0,0.0,90,0.00,,,0.01,LWC V2.10 B1813,2013-03-19 21:47:00,
2013-03-19 17:52:00,32.1,29.8,29.68,ENE,70,0.0,0.0,91,0.00,,,0.01,LWC V2.10 B1813,2013-03-19 21:52:00,
2013-03-19 17:57:00,32.1,29.8,29.68,WNW,301,0.0,0.0,91,0.00,,,0.01,LWC V2.10 B1813,2013-03-19 21:57:00,
2013-03-19 18:07:00,31.8,29.7,29.68,NNE,24,0.0,0.0,92,0.00,,,0.01,LWC V2.10 B1813,2013-03-19 22:07:00,
2013-03-19 18:12:00,31.7,29.6,29.68,NNW,338,0.0,0.0,92,0.00,,,0.01,LWC V2.10 B1813,2013-03-19 22:12:00,
2013-03-19 18:17:00,31.7,29.9,29.68,North,352,0.0,0.0,93,0.00,,,0.01,LWC V2.10 B1813,2013-03-19 22:17:00,
2013-03-19 18:22:00,31.7,29.9,29.67,NE,39,0.0,0.0,93,0.00,,,0.01,LWC V2.10 B1813,2013-03-19 22:22:00,
2013-03-19 18:27:00,31.7,29.9,29.68,NE,40,0.0,0.0,93,0.00,,,0.01,LWC V2.10 B1813,2013-03-19 22:27:00,
2013-03-19 18:32:00,31.6,29.8,29.68,NW,310,0.0,0.0,93,0.00,,,0.01,LWC V2.10 B1813,2013-03-19 22:32:00,
2013-03-19 18:37:00,31.6,30.1,29.68,NW,318,0.0,0.0,94,0.00,,,0.01,LWC V2.10 B1813,2013-03-19 22:37:00,
2013-03-19 18:42:00,31.5,29.7,29.69,NNW,330,0.0,0.0,93,0.00,,,0.01,LWC V2.10 B1813,2013-03-19 22:42:00,
2013-03-19 18:47:00,31.4,29.6,29.69,NW,309,0.0,0.0,93,0.00,,,0.01,LWC V2.10 B1813,2013-03-19 22:47:00,
2013-03-19 18:52:00,31.3,29.5,29.69,NNW,348,0.0,0.0,93,0.00,,,0.01,LWC V2.10 B1813,2013-03-19 22:52:00,
2013-03-19 18:57:00,31.2,29.4,29.69,NE,44,0.0,0.0,93,0.00,,,0.01,LWC V2.10 B1813,2013-03-19 22:57:00,
2013-03-19 19:02:00,31.1,29.3,29.69,WNW,291,0.0,0.0,93,0.00,,,0.01,LWC V2.10 B1813,2013-03-19 23:02:00,
2013-03-19 19:07:00,31.0,29.2,29.70,SSW,210,0.0,0.0,93,0.00,,,0.01,LWC V2.10 B1813,2013-03-19 23:07:00,
2013-03-19 19:12:00,31.0,29.2,29.69,ENE,74,0.0,0.0,93,0.00,,,0.01,LWC V2.10 B1813,2013-03-19 23:12:00,
2013-03-19 19:17:00,30.9,28.9,29.69,East,82,0.0,0.0,92,0.00,,,0.01,LWC V2.10 B1813,2013-03-19 23:17:00,
2013-03-19 19:22:00,30.8,28.8,29.68,East,82,0.0,0.0,92,0.00,,,0.01,LWC V2.10 B1813,2013-03-19 23:22:00,
2013-03-19 19:27:00,30.8,29.0,29.69,NE,52,0.0,0.0,93,0.00,,,0.01,LWC V2.10 B1813,2013-03-19 23:27:00,
2013-03-19 19:32:00,30.8,29.0,29.69,NNW,341,0.0,0.0,93,0.00,,,0.01,LWC V2.10 B1813,2013-03-19 23:32:00,
2013-03-19 19:37:00,30.7,28.9,29.68,NNW,341,0.0,0.0,93,0.00,,,0.01,LWC V2.10 B1813,2013-03-19 23:37:00,
2013-03-19 19:47:00,30.6,29.1,29.68,WNW,297,0.0,0.0,94,0.00,,,0.01,LWC V2.10 B1813,2013-03-19 23:47:00,
2013-03-19 19:52:00,30.5,28.7,29.68,NW,313,0.0,0.0,93,0.00,,,0.01,LWC V2.10 B1813,2013-03-19 23:52:00,
2013-03-19 19:57:00,30.6,28.8,29.69,WNW,291,0.0,0.0,93,0.00,,,0.01,LWC V2.10 B1813,2013-03-19 23:57:00,
2013-03-19 20:02:00,30.6,28.6,29.69,WNW,295,0.0,0.0,92,0.00,,,0.01,LWC V2.10 B1813,2013-03-20 00:02:00,
2013-03-19 20:07:00,30.6,28.8,29.69,WNW,296,0.0,0.0,93,0.00,,,0.01,LWC V2.10 B1813,2013-03-20 00:07:00,
2013-03-19 20:12:00,30.6,28.6,29.69,NNW,341,0.0,0.0,92,0.00,,,0.01,LWC V2.10 B1813,2013-03-20 00:12:00,
2013-03-19 20:22:00,30.6,28.6,29.69,NNW,346,0.0,0.0,92,0.00,,,0.01,LWC V2.10 B1813,2013-03-20 00:22:00,
2013-03-19 20:27:00,30.5,28.2,29.69,NNW,327,0.0,0.0,91,0.00,,,0.01,LWC V2.10 B1813,2013-03-20 00:27:00,
2013-03-19 20:32:00,30.5,28.2,29.70,NNW,332,0.0,0.0,91,0.00,,,0.01,LWC V2.10 B1813,2013-03-20 00:32:00,
2013-03-19 20:37:00,30.5,28.2,29.70,NNW,343,0.0,0.0,91,0.00,,,0.01,LWC V2.10 B1813,2013-03-20 00:37:00,
2013-03-19 20:42:00,30.5,27.9,29.71,NNW,328,0.0,0.0,90,0.00,,,0.01,LWC V2.10 B1813,2013-03-20 00:42:00,
2013-03-19 20:47:00,30.4,27.6,29.71,NNW,338,0.0,0.0,89,0.00,,,0.01,LWC V2.10 B1813,2013-03-20 00:47:00,
2013-03-19 20:52:00,30.2,27.6,29.71,NW,324,0.0,0.0,90,0.00,,,0.01,LWC V2.10 B1813,2013-03-20 00:52:00,
2013-03-19 20:57:00,30.1,27.5,29.71,NW,322,0.0,0.0,90,0.00,,,0.01,LWC V2.10 B1813,2013-03-20 00:57:00,
2013-03-19 21:02:00,29.9,27.3,29.72,West,277,0.0,0.0,90,0.00,,,0.01,LWC V2.10 B1813,2013-03-20 01:02:00,
2013-03-19 21:07:00,29.8,27.2,29.71,WNW,301,0.0,0.0,90,0.00,,,0.01,LWC V2.10 B1813,2013-03-20 01:07:00,
2013-03-19 21:12:00,29.8,27.5,29.71,WNW,301,0.0,0.0,91,0.00,,,0.01,LWC V2.10 B1813,2013-03-20 01:12:00,
2013-03-19 21:17:00,29.6,27.3,29.72,WNW,301,0.0,0.0,91,0.00,,,0.01,LWC V2.10 B1813,2013-03-20 01:17:00,
2013-03-19 21:22:00,29.6,27.6,29.72,WNW,301,0.0,0.0,92,0.00,,,0.01,LWC V2.10 B1813,2013-03-20 01:22:00,
2013-03-19 21:27:00,29.4,27.4,29.72,East,83,0.0,0.0,92,0.00,,,0.01,LWC V2.10 B1813,2013-03-20 01:27:00,
2013-03-19 21:32:00,29.3,27.5,29.72,North,354,0.0,0.0,93,0.00,,,0.01,LWC V2.10 B1813,2013-03-20 01:32:00,
2013-03-19 21:37:00,29.2,27.4,29.72,NE,41,0.0,0.0,93,0.00,,,0.01,LWC V2.10 B1813,2013-03-20 01:37:00,
2013-03-19 21:42:00,29.1,27.3,29.72,East,87,0.0,0.0,93,0.00,,,0.01,LWC V2.10 B1813,2013-03-20 01:42:00,
2013-03-19 21:47:00,29.0,27.2,29.72,West,279,0.0,0.0,93,0.00,,,0.01,LWC V2.10 B1813,2013-03-20 01:47:00,
2013-03-19 21:52:00,28.9,27.1,29.72,North,358,0.0,0.0,93,0.00,,,0.01,LWC V2.10 B1813,2013-03-20 01:52:00,
2013-03-19 21:57:00,28.8,27.0,29.72,NW,304,0.0,0.0,93,0.00,,,0.01,LWC V2.10 B1813,2013-03-20 01:57:00,
2013-03-19 22:02:00,28.7,26.9,29.72,NW,304,0.0,0.0,93,0.00,,,0.01,LWC V2.10 B1813,2013-03-20 02:02:00,
2013-03-19 22:07:00,28.7,26.9,29.72,NNE,28,0.0,0.0,93,0.00,,,0.01,LWC V2.10 B1813,2013-03-20 02:07:00,
2013-03-19 22:12:00,28.6,26.8,29.72,NNE,26,0.0,0.0,93,0.00,,,0.01,LWC V2.10 B1813,2013-03-20 02:12:00,
2013-03-19 22:17:00,28.6,26.8,29.72,North,4,0.0,0.0,93,0.00,,,0.01,LWC V2.10 B1813,2013-03-20 02:17:00,
2013-03-19 22:22:00,28.5,26.7,29.72,West,272,0.0,0.0,93,0.00,,,0.01,LWC V2.10 B1813,2013-03-20 02:22:00,
2013-03-19 22:27:00,28.4,26.6,29.71,ENE,70,0.0,0.0,93,0.00,,,0.01,LWC V2.10 B1813,2013-03-20 02:27:00,
2013-03-19 22:32:00,28.3,26.3,29.71,ENE,66,0.0,0.0,92,0.00,,,0.01,LWC V2.10 B1813,2013-03-20 02:32:00,
2013-03-19 22:37:00,28.1,26.1,29.71,North,353,0.0,0.0,92,0.00,,,0.01,LWC V2.10 B1813,2013-03-20 02:37:00,
2013-03-19 22:42:00,28.1,26.1,29.71,North,350,0.0,0.0,92,0.00,,,0.01,LWC V2.10 B1813,2013-03-20 02:42:00,
2013-03-19 22:47:00,27.9,25.9,29.71,North,350,0.0,0.0,92,0.00,,,0.01,LWC V2.10 B1813,2013-03-20 02:47:00,
2013-03-19 22:52:00,27.8,25.8,29.72,NW,320,0.0,0.0,92,0.00,,,0.01,LWC V2.10 B1813,2013-03-20 02:52:00,
2013-03-19 22:57:00,27.8,25.8,29.71,NNW,341,0.0,0.0,92,0.00,,,0.01,LWC V2.10 B1813,2013-03-20 02:57:00,
2013-03-19 23:02:00,27.7,25.7,29.71,NNW,345,0.0,0.0,92,0.00,,,0.01,LWC V2.10 B1813,2013-03-20 03:02:00,
2013-03-19 23:07:00,27.6,25.3,29.71,NW,311,0.0,0.0,91,0.00,,,0.01,LWC V2.10 B1813,2013-03-20 03:07:00,
2013-03-19 23:12:00,27.6,25.3,29.71,NNW,327,0.0,0.0,91,0.00,,,0.01,LWC V2.10 B1813,2013-03-20 03:12:00,
2013-03-19 23:17:00,27.5,25.2,29.71,NNW,327,0.0,0.0,91,0.00,,,0.01,LWC V2.10 B1813,2013-03-20 03:17:00,
2013-03-19 23:22:00,27.5,25.2,29.71,NNW,331,0.0,0.0,91,0.00,,,0.01,LWC V2.10 B1813,2013-03-20 03:22:00,
2013-03-19 23:27:00,27.4,25.1,29.71,WNW,291,0.0,0.0,91,0.00,,,0.01,LWC V2.10 B1813,2013-03-20 03:27:00,
2013-03-19 23:32:00,27.4,25.1,29.71,WNW,294,0.0,0.0,91,0.00,,,0.01,LWC V2.10 B1813,2013-03-20 03:32:00,
2013-03-19 23:37:00,27.3,25.0,29.71,WNW,301,0.0,0.0,91,0.00,,,0.01,LWC V2.10 B1813,2013-03-20 03:37:00,
2013-03-19 23:42:00,27.2,24.9,29.71,West,275,0.0,0.0,91,0.00,,,0.01,LWC V2.10 B1813,2013-03-20 03:42:00,
2013-03-19 23:47:00,27.1,24.8,29.71,WNW,290,0.0,0.0,91,0.00,,,0.01,LWC V2.10 B1813,2013-03-20 03:47:00,
2013-03-19 23:52:00,27.0,24.7,29.71,NNW,336,0.0,0.0,91,0.00,,,0.01,LWC V2.10 B1813,2013-03-20 03:52:00,
2013-03-19 23:57:00,27.0,25.0,29.71,NNW,334,0.0,0.0,92,0.00,,,0.01,LWC V2.10 B1813,2013-03-20 03:57:00,